CW2303 Weather Reports


Display with metric or nautical units.
time (UTC)temp
F
wind
direction
speed
MPH
gust
MPH
rain 1hr
in
rain 24hr
in
rain mn
in
humidity
%
barometer
mb
20260903170542 92 216 4.0 9.0 0.00 0.00 0.00 50 1017.0
20260903170100 91 186 4.0 10.0 0.00 0.00 0.00 52 1017.1
20260903165543 91 188 4.0 11.0 0.00 0.00 0.00 52 1017.1
20260903165042 91 132 3.0 11.0 0.00 0.00 0.00 53 1017.1
20260903164625 91 163 4.0 10.0 0.00 0.00 0.00 52 1017.2
20260903164042 91 140 3.0 10.0 0.00 0.00 0.00 55 1017.2
20260903163542 91 186 2.0 11.0 0.00 0.00 0.00 53 1017.3
20260903163108 91 239 4.0 11.0 0.00 0.00 0.00 53 1017.2
20260903162543 90 180 4.0 10.0 0.00 0.00 0.00 54 1017.2
20260903162043 90 190 5.0 10.0 0.00 0.00 0.00 54 1017.3
20260903161601 90 169 4.0 11.0 0.00 0.00 0.00 56 1017.3
20260903161042 90 184 4.0 11.0 0.00 0.00 0.00 56 1017.4
20260903160542 90 172 4.0 11.0 0.00 0.00 0.00 56 1017.4
20260903160129 90 155 4.0 11.0 0.00 0.00 0.00 57 1017.5
20260903155544 90 196 3.0 11.0 0.00 0.00 0.00 57 1017.5
20260903155044 89 180 4.0 10.0 0.00 0.00 0.00 58 1017.5
20260903154610 89 213 4.0 10.0 0.00 0.00 0.00 59 1017.5
20260903154043 89 219 3.0 10.0 0.00 0.00 0.00 58 1017.5
20260903153545 88 192 3.0 11.0 0.00 0.00 0.00 59 1017.5
20260903153101 88 206 4.0 11.0 0.00 0.00 0.00 59 1017.5
20260903152543 88 236 6.0 11.0 0.00 0.00 0.00 60 1017.5
20260903152043 88 171 5.0 11.0 0.00 0.00 0.00 60 1017.5
20260903151608 88 210 5.0 11.0 0.00 0.00 0.00 60 1017.5
20260903151042 88 176 3.0 11.0 0.00 0.00 0.00 61 1017.5
20260903150542 87 196 4.0 11.0 0.00 0.00 0.00 63 1017.6
20260903150113 87 156 4.0 9.0 0.00 0.00 0.00 64 1017.5
20260903145546 87 169 3.0 8.0 0.00 0.00 0.00 64 1017.5
20260903145042 86 138 3.0 7.0 0.00 0.00 0.00 65 1017.5
20260903144606 86 160 3.0 10.0 0.00 0.00 0.00 65 1017.5
20260903144046 86 210 3.0 12.0 0.00 0.00 0.00 65 1017.6
20260903143541 85 221 3.0 12.0 0.00 0.00 0.00 65 1017.5
20260903143110 85 211 3.0 12.0 0.00 0.00 0.00 66 1017.6
20260903142543 84 186 3.0 9.0 0.00 0.00 0.00 68 1017.6
20260903142042 84 223 3.0 9.0 0.00 0.00 0.00 68 1017.7
20260903141610 84 146 4.0 9.0 0.00 0.00 0.00 69 1017.6
20260903141042 83 139 3.0 7.0 0.00 0.00 0.00 70 1017.6
20260903140544 83 214 2.0 7.0 0.00 0.00 0.00 72 1017.6
20260903140109 82 200 2.0 9.0 0.00 0.00 0.00 72 1017.7
20260903135543 82 196 1.0 9.0 0.00 0.00 0.00 73 1017.7
20260903135043 81 169 1.0 9.0 0.00 0.00 0.00 75 1017.8
20260903134605 81 196 2.0 9.0 0.00 0.00 0.00 75 1017.8
20260903134043 80 189 2.0 4.0 0.00 0.00 0.00 77 1017.8
20260903133544 79 145 1.0 3.0 0.00 0.00 0.00 79 1017.8
20260903133100 78 155 1.0 5.0 0.00 0.00 0.00 80 1017.8
20260903132543 78 158 1.0 5.0 0.00 0.00 0.00 80 1017.8
20260903132042 77 221 0.0 5.0 0.00 0.00 0.00 81 1017.9
20260903131601 77 167 1.0 5.0 0.00 0.00 0.00 81 1017.8
20260903131042 77 140 1.0 5.0 0.00 0.00 0.00 82 1017.8
20260903130542 76 157 0.0 3.0 0.00 0.00 0.00 83 1017.8
20260903130059 76 159 0.0 1.0 0.00 0.00 0.00 83 1017.6
20260903125542 75 0 0.0 1.0 0.00 0.00 0.00 84 1017.7
20260903125042 75 0 0.0 2.0 0.00 0.00 0.00 84 1017.6
20260903124606 75 140 0.0 2.0 0.00 0.00 0.00 84 1017.5
20260903124042 74 163 0.0 1.0 0.00 0.00 0.00 84 1017.5
20260903123541 74 0 0.0 1.0 0.00 0.00 0.00 85 1017.6
20260903123059 74 141 0.0 1.0 0.00 0.00 0.00 85 1017.6
20260903122543 74 134 0.0 1.0 0.00 0.00 0.00 85 1017.5
20260903122043 74 0 0.0 1.0 0.00 0.00 0.00 85 1017.6
20260903121558 74 146 0.0 1.0 0.00 0.00 0.00 85 1017.6
20260903121043 74 0 0.0 2.0 0.00 0.00 0.00 85 1017.6
20260903120542 74 0 0.0 2.0 0.00 0.00 0.00 85 1017.6
20260903120107 74 0 0.0 2.0 0.00 0.00 0.00 85 1017.6
20260903115542 74 0 0.0 1.0 0.00 0.00 0.00 84 1017.6
20260903115043 74 0 0.0 1.0 0.00 0.00 0.00 84 1017.5
20260903114603 74 0 0.0 1.0 0.00 0.00 0.00 84 1017.5
20260903114043 74 146 0.0 1.0 0.00 0.00 0.00 84 1017.4
20260903113542 74 146 0.0 2.0 0.00 0.00 0.00 84 1017.4
20260903113101 74 176 0.0 4.0 0.00 0.00 0.00 83 1017.3
20260903112544 74 196 0.0 4.0 0.00 0.00 0.00 83 1017.4
20260903112044 74 194 0.0 2.0 0.00 0.00 0.00 83 1017.3
20260903111559 74 0 0.0 1.0 0.00 0.00 0.00 83 1017.3
20260903111042 75 153 0.0 1.0 0.00 0.00 0.00 83 1017.2
20260903110542 75 0 0.0 3.0 0.00 0.00 0.00 82 1017.2
20260903105543 75 0 1.0 3.0 0.00 0.00 0.00 82 1017.1
20260903105043 75 160 0.0 3.0 0.00 0.00 0.00 82 1017.1
20260903104605 75 168 0.0 1.0 0.00 0.00 0.00 82 1017.1
20260903104042 75 0 0.0 1.0 0.00 0.00 0.00 82 1017.0
20260903103542 75 0 0.0 2.0 0.00 0.00 0.00 82 1017.0
20260903103110 75 0 0.0 2.0 0.00 0.00 0.00 82 1017.0
20260903102546 75 0 0.0 1.0 0.00 0.00 0.00 81 1017.0
20260903102042 75 0 0.0 3.0 0.00 0.00 0.00 81 1017.0
20260903101611 75 0 0.0 3.0 0.00 0.00 0.00 81 1017.0
20260903101043 76 138 0.0 2.0 0.00 0.00 0.00 80 1016.8
20260903100543 76 141 0.0 2.0 0.00 0.00 0.00 80 1016.9
20260903100104 76 144 0.0 4.0 0.00 0.00 0.00 80 1017.0
20260903095542 76 160 1.0 4.0 0.00 0.00 0.00 80 1017.0
20260903095042 76 140 1.0 4.0 0.00 0.00 0.00 80 1016.9
20260903094606 76 138 0.0 2.0 0.00 0.00 0.00 80 1016.8
20260903094044 76 137 0.0 1.0 0.00 0.00 0.00 80 1016.8
20260903093544 76 120 0.0 3.0 0.00 0.00 0.00 79 1016.8
20260903093110 76 139 1.0 3.0 0.00 0.00 0.00 79 1016.9
20260903092542 76 142 1.0 2.0 0.00 0.00 0.00 80 1016.8
20260903092042 76 132 0.0 2.0 0.00 0.00 0.00 80 1016.8
20260903091602 76 144 0.0 4.0 0.00 0.00 0.00 79 1016.8
20260903091042 76 0 1.0 4.0 0.00 0.00 0.00 79 1016.9
20260903090543 76 150 0.0 2.0 0.00 0.00 0.00 79 1016.8
20260903090101 76 157 0.0 2.0 0.00 0.00 0.00 79 1016.8
20260903085543 76 0 0.0 2.0 0.00 0.00 0.00 79 1016.8
20260903085042 76 200 1.0 4.0 0.00 0.00 0.00 79 1016.8
20260903084600 76 0 0.0 4.0 0.00 0.00 0.00 78 1016.8
20260903084043 76 0 1.0 3.0 0.00 0.00 0.00 79 1016.7
20260903083544 76 144 0.0 4.0 0.00 0.00 0.00 79 1016.6
20260903083056 76 137 1.0 4.0 0.00 0.00 0.00 79 1016.6
20260903082543 76 148 0.0 2.0 0.00 0.00 0.00 79 1016.7
20260903082043 76 146 0.0 1.0 0.00 0.00 0.00 78 1016.7
20260903081600 76 0 0.0 2.0 0.00 0.00 0.00 78 1016.7
20260903081045 76 171 0.0 2.0 0.00 0.00 0.00 78 1016.6
20260903080544 77 0 0.0 3.0 0.00 0.00 0.00 77 1016.6
20260903080059 77 153 1.0 3.0 0.00 0.00 0.00 77 1016.6
20260903075545 77 138 1.0 2.0 0.00 0.00 0.00 78 1016.6
20260903075042 76 140 0.0 2.0 0.00 0.00 0.00 78 1016.7
20260903074605 76 0 0.0 1.0 0.00 0.00 0.00 77 1016.6
20260903074042 76 0 0.0 2.0 0.00 0.00 0.00 77 1016.7
20260903073542 76 147 0.0 2.0 0.00 0.00 0.00 77 1016.6
20260903073106 76 0 0.0 2.0 0.00 0.00 0.00 77 1016.6
20260903072541 76 146 0.0 2.0 0.00 0.00 0.00 77 1016.5
20260903072043 76 0 0.0 2.0 0.00 0.00 0.00 77 1016.5
20260903071601 76 157 0.0 2.0 0.00 0.00 0.00 77 1016.6
20260903071042 77 0 0.0 2.0 0.00 0.00 0.00 76 1016.7
20260903070542 77 134 0.0 2.0 0.00 0.00 0.00 76 1016.6
20260903070114 77 145 0.0 2.0 0.00 0.00 0.00 76 1016.7
20260903065542 77 153 0.0 2.0 0.00 0.00 0.00 76 1016.7
20260903065042 77 160 0.0 3.0 0.00 0.00 0.00 75 1016.6
20260903064603 77 175 0.0 4.0 0.00 0.00 0.00 75 1016.7
20260903064042 77 157 0.0 4.0 0.00 0.00 0.00 75 1016.7
20260903063543 77 132 0.0 3.0 0.00 0.00 0.00 75 1016.6
20260903063124 77 156 0.0 3.0 0.00 0.00 0.00 75 1016.6
20260903062543 77 191 0.0 3.0 0.00 0.00 0.00 74 1016.6
20260903062043 77 152 1.0 2.0 0.00 0.00 0.00 74 1016.6
20260903061606 77 159 0.0 2.0 0.00 0.00 0.00 74 1016.6
20260903061044 78 150 0.0 2.0 0.00 0.00 0.00 73 1016.5
20260903060542 78 134 0.0 2.0 0.00 0.00 0.00 73 1016.7
20260903060117 78 0 0.0 2.0 0.00 0.00 0.00 73 1016.8
20260903055543 78 130 0.0 3.0 0.00 0.00 0.00 72 1016.7
20260903055042 78 159 0.0 3.0 0.00 0.00 0.00 72 1016.7
20260903054609 78 0 0.0 3.0 0.00 0.00 0.00 71 1016.8
20260903054043 78 172 1.0 6.0 0.00 0.00 0.00 71 1016.7
20260903053546 78 291 1.0 6.0 0.00 0.00 0.00 72 1016.7
20260903053107 78 0 0.0 3.0 0.00 0.00 0.00 71 1016.5
20260903052542 78 150 0.0 2.0 0.00 0.00 0.00 71 1016.5
20260903052042 78 151 0.0 4.0 0.00 0.00 0.00 71 1016.6
20260903051605 78 167 0.0 4.0 0.00 0.00 0.00 71 1016.5
20260903051042 78 144 0.0 3.0 0.00 0.00 0.00 72 1016.5
20260903050543 78 0 0.0 1.0 0.00 0.00 0.00 71 1016.4
20260903050127 78 0 0.0 1.0 0.00 0.00 0.00 71 1016.4
20260903045543 78 150 0.0 2.0 0.00 0.00 0.00 70 1016.4
20260903045042 78 0 0.0 2.0 0.00 0.00 0.00 70 1016.4
20260903044606 78 173 0.0 2.0 0.00 0.00 0.00 70 1016.3
20260903044042 78 157 0.0 2.0 0.00 0.00 0.00 69 1016.4
20260903043543 79 0 0.0 2.0 0.00 0.00 0.00 69 1016.4
20260903043106 79 180 0.0 3.0 0.00 0.00 0.00 68 1016.3
20260903042543 79 194 0.0 3.0 0.00 0.00 0.00 68 1016.3
20260903042043 79 0 0.0 1.0 0.00 0.00 0.00 67 1016.3
20260903041603 80 141 0.0 2.0 0.00 0.00 0.00 67 1016.4
20260903041042 80 138 0.0 2.0 0.00 0.00 0.00 67 1016.4
20260903040543 80 0 0.0 2.0 0.00 0.00 0.00 67 1016.4
20260903040105 80 150 0.0 1.0 0.00 0.00 0.00 66 1016.3
20260903035543 80 144 0.0 2.0 0.00 0.00 0.00 66 1016.4
20260903035044 80 152 0.0 2.0 0.00 0.00 0.00 66 1016.6
20260903034607 80 153 0.0 2.0 0.00 0.00 0.00 65 1016.5
20260903034045 80 0 0.0 2.0 0.00 0.00 0.00 65 1016.4
20260903033546 81 0 0.0 3.0 0.00 0.00 0.00 64 1016.3
20260903033104 81 184 0.0 3.0 0.00 0.00 0.00 64 1016.2
20260903032542 81 134 0.0 4.0 0.00 0.00 0.00 63 1016.2
20260903032044 81 143 1.0 4.0 0.00 0.00 0.00 63 1016.2
20260903031559 81 215 1.0 4.0 0.00 0.00 0.00 63 1016.2
20260903031045 81 142 0.0 2.0 0.00 0.00 0.00 63 1016.2
20260903030543 81 136 0.0 1.0 0.00 0.00 0.00 63 1016.2
20260903030059 81 167 0.0 3.0 0.00 0.00 0.00 63 1016.2
20260903025543 81 0 0.0 3.0 0.00 0.00 0.00 62 1016.2
20260903025043 81 0 0.0 3.0 0.00 0.00 0.00 62 1016.1
20260903024603 82 138 0.0 2.0 0.00 0.00 0.00 61 1016.1
20260903024042 82 138 0.0 2.0 0.00 0.00 0.00 61 1016.1
20260903023542 82 148 1.0 2.0 0.00 0.00 0.00 60 1015.9
20260903023107 82 142 1.0 2.0 0.00 0.00 0.00 60 1015.9
20260903022542 83 151 1.0 3.0 0.00 0.00 0.00 60 1015.8
20260903022043 83 127 1.0 3.0 0.00 0.00 0.00 59 1015.8
20260903021602 83 0 0.0 3.0 0.00 0.00 0.00 59 1015.7
20260903021043 83 148 0.0 3.0 0.00 0.00 0.00 58 1015.6
20260903020546 83 140 1.0 3.0 0.00 0.00 0.00 57 1015.7
20260903020106 84 138 1.0 3.0 0.00 0.00 0.00 57 1015.6
20260903015543 84 140 1.0 3.0 0.00 0.00 0.00 57 1015.5
20260903015046 84 136 1.0 3.0 0.00 0.00 0.00 56 1015.4
20260903014613 84 128 1.0 3.0 0.00 0.00 0.00 56 1015.4
20260903014042 84 138 0.0 2.0 0.00 0.00 0.00 56 1015.3
20260903013544 84 129 1.0 2.0 0.00 0.00 0.00 55 1015.2
20260903013110 84 128 0.0 1.0 0.00 0.00 0.00 55 1015.1
20260903012543 85 0 0.0 1.0 0.00 0.00 0.00 55 1015.2
20260903012043 85 132 0.0 1.0 0.00 0.00 0.00 55 1015.1
20260903011611 85 129 0.0 1.0 0.00 0.00 0.00 54 1015.0
20260903011043 85 0 0.0 1.0 0.00 0.00 0.00 54 1014.9
20260903010544 85 0 0.0 1.0 0.00 0.00 0.00 54 1015.0
20260903010059 85 0 0.0 0.0 0.00 0.00 0.00 53 1015.0
20260903005543 86 0 0.0 0.0 0.00 0.00 0.00 51 1015.0
20260903005043 87 0 0.0 0.0 0.00 0.00 0.00 51 1014.9
20260903004606 87 132 0.0 0.0 0.00 0.00 0.00 50 1014.9
20260903004043 88 0 0.0 1.0 0.00 0.00 0.00 49 1015.0
20260903003542 89 0 0.0 1.0 0.00 0.00 0.00 47 1015.0
20260903003101 90 136 0.0 1.0 0.00 0.00 0.00 46 1015.0
20260903002544 91 0 0.0 1.0 0.00 0.00 0.00 45 1014.9
20260903002046 92 140 0.0 0.0 0.00 0.00 0.00 44 1015.0
20260903001608 92 0 0.0 1.0 0.00 0.00 0.00 44 1015.0
20260903001042 93 0 0.0 1.0 0.00 0.00 0.00 43 1015.0
20260903000542 93 0 0.0 2.0 0.00 0.00 0.00 42 1015.0
20260903000107 93 0 0.0 2.0 0.00 0.00 0.00 42 1015.0
20260902235543 93 0 0.0 2.0 0.00 0.00 0.00 42 1015.0
20260902235045 93 0 0.0 7.0 0.00 0.00 0.00 42 1015.0
20260902234606 93 175 1.0 7.0 0.00 0.00 0.00 42 1015.0
20260902234045 93 136 1.0 4.0 0.00 0.00 0.00 41 1015.0
20260902233543 93 152 1.0 4.0 0.00 0.00 0.00 41 1015.0
20260902233106 93 195 1.0 3.0 0.00 0.00 0.00 41 1015.1
20260902232543 94 156 1.0 4.0 0.00 0.00 0.00 41 1015.1
20260902232043 94 172 1.0 5.0 0.00 0.00 0.00 41 1015.2
20260902231610 93 191 1.0 5.0 0.00 0.00 0.00 42 1015.1
20260902231044 94 126 0.0 6.0 0.00 0.00 0.00 42 1015.2
20260902230543 94 190 0.0 6.0 0.00 0.00 0.00 41 1015.3
20260902230107 94 144 2.0 5.0 0.00 0.00 0.00 41 1015.3
20260902225542 94 135 1.0 5.0 0.00 0.00 0.00 41 1015.2
20260902225042 94 163 1.0 5.0 0.00 0.00 0.00 42 1015.2
20260902224602 94 210 1.0 4.0 0.00 0.00 0.00 41 1015.2
20260902224043 95 181 1.0 6.0 0.00 0.00 0.00 41 1015.3
20260902223543 95 138 1.0 6.0 0.00 0.00 0.00 43 1015.3
20260902223108 95 165 2.0 5.0 0.00 0.00 0.00 41 1015.3
20260902222545 95 211 1.0 6.0 0.00 0.00 0.00 40 1015.3
20260902222043 95 191 3.0 6.0 0.00 0.00 0.00 41 1015.4
20260902221600 96 198 1.0 6.0 0.00 0.00 0.00 40 1015.3
20260902221043 96 159 1.0 6.0 0.00 0.00 0.00 41 1015.3
20260902220545 97 171 3.0 6.0 0.00 0.00 0.00 39 1015.4
20260902220109 97 167 2.0 7.0 0.00 0.00 0.00 39 1015.4
20260902215544 97 151 1.0 7.0 0.00 0.00 0.00 38 1015.3
20260902215042 97 173 3.0 7.0 0.00 0.00 0.00 40 1015.4
20260902214604 96 0 2.0 8.0 0.00 0.00 0.00 41 1015.5
20260902214042 97 153 2.0 8.0 0.00 0.00 0.00 39 1015.5
20260902213542 97 133 3.0 8.0 0.00 0.00 0.00 39 1015.5
20260902213105 97 221 1.0 8.0 0.00 0.00 0.00 39 1015.5
20260902212543 97 185 3.0 8.0 0.00 0.00 0.00 38 1015.6
20260902212043 97 152 3.0 8.0 0.00 0.00 0.00 38 1015.6
20260902211608 98 167 1.0 8.0 0.00 0.00 0.00 39 1015.7
20260902211042 97 143 4.0 8.0 0.00 0.00 0.00 38 1015.7
20260902210543 97 106 2.0 6.0 0.00 0.00 0.00 41 1015.7
20260902210124 97 252 2.0 6.0 0.00 0.00 0.00 38 1015.8
20260902205542 97 196 2.0 6.0 0.00 0.00 0.00 39 1015.9
20260902205043 97 192 3.0 6.0 0.00 0.00 0.00 39 1015.9
20260902204607 97 245 2.0 7.0 0.00 0.00 0.00 40 1016.0
20260902204042 97 247 2.0 7.0 0.00 0.00 0.00 39 1016.0
20260902203542 97 198 2.0 7.0 0.00 0.00 0.00 42 1016.2
20260902203103 96 217 2.0 7.0 0.00 0.00 0.00 39 1016.1
20260902202545 96 221 2.0 6.0 0.00 0.00 0.00 41 1016.1
20260902202045 96 208 3.0 8.0 0.00 0.00 0.00 41 1016.3
20260902201606 96 221 1.0 9.0 0.00 0.00 0.00 41 1016.4
20260902201043 97 138 4.0 9.0 0.00 0.00 0.00 41 1016.5
20260902200543 96 190 3.0 9.0 0.00 0.00 0.00 42 1016.5
20260902200119 96 223 1.0 6.0 0.00 0.00 0.00 39 1016.6
20260902195543 97 240 2.0 9.0 0.00 0.00 0.00 41 1016.7
20260902195044 96 151 4.0 9.0 0.00 0.00 0.00 43 1016.8
20260902194609 96 190 2.0 9.0 0.00 0.00 0.00 42 1016.9
20260902194043 96 246 2.0 7.0 0.00 0.00 0.00 43 1017.1
20260902193545 96 311 1.0 7.0 0.00 0.00 0.00 40 1017.1
20260902193107 97 168 3.0 7.0 0.00 0.00 0.00 42 1017.2
20260902192542 96 0 2.0 7.0 0.00 0.00 0.00 44 1017.2
20260902192043 96 275 2.0 8.0 0.00 0.00 0.00 44 1017.3
20260902191602 96 132 2.0 8.0 0.00 0.00 0.00 42 1017.4
20260902191042 95 169 3.0 8.0 0.00 0.00 0.00 44 1017.5
20260902190543 95 146 3.0 5.0 0.00 0.00 0.00 45 1017.6
20260902185542 96 211 2.0 7.0 0.00 0.00 0.00 47 1017.7
20260902185044 96 257 2.0 7.0 0.00 0.00 0.00 46 1017.8
20260902184607 96 137 1.0 6.0 0.00 0.00 0.00 45 1017.8
20260902184042 95 175 3.0 8.0 0.00 0.00 0.00 50 1017.8
20260902183543 95 99 2.0 9.0 0.00 0.00 0.00 49 1017.9
20260902183105 95 128 3.0 9.0 0.00 0.00 0.00 49 1018.0
20260902182542 94 138 4.0 10.0 0.00 0.00 0.00 48 1018.0
20260902182044 95 252 3.0 10.0 0.00 0.00 0.00 48 1018.1
20260902181603 94 248 2.0 6.0 0.00 0.00 0.00 50 1018.1
20260902181043 94 212 1.0 6.0 0.00 0.00 0.00 48 1018.2
20260902180542 94 236 3.0 7.0 0.00 0.00 0.00 49 1018.3
20260902180131 95 221 2.0 7.0 0.00 0.00 0.00 46 1018.3
20260902175543 94 243 3.0 6.0 0.00 0.00 0.00 50 1018.4
20260902175043 94 219 2.0 7.0 0.00 0.00 0.00 50 1018.4
20260902174607 94 153 2.0 9.0 0.00 0.00 0.00 49 1018.5
20260902174042 94 240 3.0 9.0 0.00 0.00 0.00 51 1018.7
20260902173542 94 221 3.0 7.0 0.00 0.00 0.00 51 1018.7
20260902173104 93 166 4.0 7.0 0.00 0.00 0.00 52 1018.7
20260902172545 93 144 2.0 7.0 0.00 0.00 0.00 52 1018.7
20260902172043 93 232 2.0 10.0 0.00 0.00 0.00 52 1018.8
20260902171604 92 215 3.0 10.0 0.00 0.00 0.00 53 1018.8
20260902171043 93 268 2.0 7.0 0.00 0.00 0.00 52 1018.8